ULK2201 LOWG-EDNY

Flight info

Callsign ULK2201
Flight time 0h 52m
Altitude 36000
Route MILGO DCT ERKIR L608 KPT KPT1F
Aircraft A319/M-SDE3FGHIRWY/LB1

Departure

Time 2026-04-21 15:31
Airport Graz Airport (LOWG)

Arrival

Time 2026-04-21 16:23
Airport Bodensee Airport Friedrichshafen (EDNY)
Time Latitude Longitude Altitude Speed Heading
2026-04-21 14:36 46.99588 15.44323 1113 ft 0 kts 127°
2026-04-21 15:26 46.99587 15.44324 1113 ft 1 kts 131°
2026-04-21 15:26 46.99577 15.44321 1107 ft 2 kts 199°
2026-04-21 15:26 46.99569 15.44290 1108 ft 5 kts 254°
2026-04-21 15:26 46.99541 15.44250 1105 ft 8 kts 184°
2026-04-21 15:27 46.99469 15.44266 1107 ft 12 kts 183°
2026-04-21 15:27 46.99394 15.44180 1105 ft 16 kts 226°
2026-04-21 15:27 46.99307 15.44049 1108 ft 20 kts 228°
2026-04-21 15:27 46.99200 15.43942 1105 ft 19 kts 179°
2026-04-21 15:28 46.99064 15.43976 1106 ft 21 kts 169°
2026-04-21 15:28 46.98916 15.44016 1102 ft 24 kts 169°
2026-04-21 15:28 46.98738 15.44066 1104 ft 28 kts 169°
2026-04-21 15:28 46.98530 15.44123 1100 ft 33 kts 169°
2026-04-21 15:29 46.98293 15.44188 1098 ft 37 kts 169°
2026-04-21 15:29 46.98025 15.44264 1092 ft 41 kts 169°
2026-04-21 15:29 46.97838 15.44345 1090 ft 17 kts 136°
2026-04-21 15:29 46.97803 15.44331 1092 ft 4 kts 307°
2026-04-21 15:30 46.97857 15.44309 1092 ft 26 kts 349°
2026-04-21 15:30 46.98292 15.44188 1098 ft 98 kts 349°
2026-04-21 15:30 46.99143 15.43954 1115 ft 150 kts 349°
2026-04-21 15:30 47.00139 15.43674 1683 ft 143 kts 349°
2026-04-21 15:31 47.01132 15.43387 2152 ft 149 kts 345°
2026-04-21 15:31 47.02162 15.43097 2521 ft 152 kts 352°
2026-04-21 15:31 47.03202 15.42806 2939 ft 158 kts 350°
2026-04-21 15:31 47.04374 15.42479 3061 ft 189 kts 351°
2026-04-21 15:32 47.05760 15.42094 3369 ft 215 kts 351°
2026-04-21 15:32 47.07287 15.41516 3800 ft 241 kts 335°
2026-04-21 15:32 47.08245 15.40610 4217 ft 253 kts 323°
2026-04-21 15:32 47.09974 15.38173 5459 ft 260 kts 315°
2026-04-21 15:33 47.10793 15.36877 6072 ft 263 kts 314°
2026-04-21 15:33 47.12047 15.34893 6996 ft 267 kts 315°
2026-04-21 15:33 47.13344 15.32907 7888 ft 271 kts 316°
2026-04-21 15:33 47.14680 15.30925 8767 ft 275 kts 316°
2026-04-21 15:34 47.16047 15.28950 9600 ft 277 kts 317°
2026-04-21 15:34 47.17447 15.26959 10363 ft 286 kts 317°
2026-04-21 15:34 47.18946 15.24856 10675 ft 308 kts 317°
2026-04-21 15:34 47.20533 15.22643 11330 ft 317 kts 317°
2026-04-21 15:35 47.22145 15.20397 12134 ft 321 kts 317°
2026-04-21 15:35 47.23769 15.18130 12957 ft 323 kts 316°
2026-04-21 15:35 47.25405 15.15846 13742 ft 325 kts 316°
2026-04-21 15:35 47.27055 15.13542 14489 ft 328 kts 316°
2026-04-21 15:36 47.28600 15.11126 15199 ft 331 kts 307°
2026-04-21 15:36 47.29792 15.08221 15924 ft 333 kts 295°
2026-04-21 15:36 47.30529 15.04968 16594 ft 337 kts 282°
2026-04-21 15:36 47.30865 15.01536 17267 ft 340 kts 278°
2026-04-21 15:37 47.31169 14.98062 17939 ft 343 kts 278°
2026-04-21 15:37 47.31479 14.94565 18601 ft 345 kts 278°
2026-04-21 15:37 47.31792 14.91053 19229 ft 347 kts 278°
2026-04-21 15:37 47.32109 14.87503 19854 ft 350 kts 278°
2026-04-21 15:38 47.32426 14.83930 20470 ft 352 kts 278°
2026-04-21 15:38 47.32742 14.80340 21064 ft 355 kts 278°
2026-04-21 15:38 47.33063 14.76718 21644 ft 357 kts 278°
2026-04-21 15:38 47.33383 14.73073 22219 ft 359 kts 278°
2026-04-21 15:39 47.33704 14.69408 22790 ft 361 kts 278°
2026-04-21 15:39 47.34022 14.65724 23354 ft 363 kts 278°
2026-04-21 15:39 47.34340 14.62015 23879 ft 366 kts 278°
2026-04-21 15:39 47.34661 14.58281 24403 ft 368 kts 278°
2026-04-21 15:40 47.34982 14.54517 24898 ft 370 kts 278°
2026-04-21 15:40 47.35304 14.50739 25364 ft 372 kts 278°
2026-04-21 15:40 47.35628 14.46935 25808 ft 376 kts 278°
2026-04-21 15:40 47.35948 14.43148 26236 ft 378 kts 278°
2026-04-21 15:41 47.36273 14.39283 26672 ft 380 kts 278°
2026-04-21 15:41 47.36601 14.35399 27087 ft 383 kts 278°
2026-04-21 15:41 47.36930 14.31493 27488 ft 385 kts 278°
2026-04-21 15:41 47.37258 14.27566 27883 ft 387 kts 278°
2026-04-21 15:42 47.37586 14.23614 28275 ft 389 kts 278°
2026-04-21 15:42 47.37912 14.19632 28650 ft 392 kts 278°
2026-04-21 15:42 47.38237 14.15631 29011 ft 394 kts 278°
2026-04-21 15:42 47.38566 14.11600 29367 ft 397 kts 278°
2026-04-21 15:43 47.38895 14.07551 29725 ft 399 kts 278°
2026-04-21 15:43 47.39225 14.03472 30073 ft 401 kts 278°
2026-04-21 15:43 47.39554 13.99383 30392 ft 403 kts 278°
2026-04-21 15:43 47.39880 13.95255 30686 ft 406 kts 278°
2026-04-21 15:44 47.40206 13.91108 30981 ft 408 kts 278°
2026-04-21 15:44 47.40533 13.86933 31277 ft 410 kts 278°
2026-04-21 15:44 47.40863 13.82740 31574 ft 412 kts 278°
2026-04-21 15:44 47.41190 13.78594 31937 ft 412 kts 278°
2026-04-21 15:45 47.41518 13.74403 32333 ft 411 kts 278°
2026-04-21 15:45 47.41848 13.70197 32672 ft 411 kts 278°
2026-04-21 15:45 47.42175 13.66010 33009 ft 411 kts 278°
2026-04-21 15:45 47.42500 13.61822 33363 ft 410 kts 278°
2026-04-21 15:46 47.42824 13.57645 33742 ft 409 kts 278°
2026-04-21 15:46 47.43145 13.53466 34092 ft 408 kts 278°
2026-04-21 15:46 47.43461 13.49309 34444 ft 408 kts 278°
2026-04-21 15:46 47.43782 13.45141 34765 ft 408 kts 278°
2026-04-21 15:47 47.44102 13.40976 35044 ft 408 kts 278°
2026-04-21 15:47 47.44420 13.36818 35324 ft 408 kts 278°
2026-04-21 15:47 47.44736 13.32650 35602 ft 407 kts 278°
2026-04-21 15:47 47.45049 13.28493 35872 ft 407 kts 278°
2026-04-21 15:48 47.45359 13.24329 36079 ft 409 kts 278°
2026-04-21 15:48 47.45663 13.20172 36132 ft 405 kts 278°
2026-04-21 15:48 47.46252 13.12000 36148 ft 401 kts 278°
2026-04-21 15:49 47.46841 13.03805 36147 ft 400 kts 278°
2026-04-21 15:49 47.47426 12.95615 36147 ft 400 kts 277°
2026-04-21 15:50 47.48012 12.87432 36147 ft 401 kts 278°
2026-04-21 15:50 47.48591 12.79233 36145 ft 401 kts 277°
2026-04-21 15:51 47.49158 12.71035 36142 ft 400 kts 277°
2026-04-21 15:51 47.49716 12.62895 36136 ft 400 kts 277°
2026-04-21 15:52 47.50273 12.54699 36130 ft 401 kts 277°
2026-04-21 15:52 47.50826 12.46482 36122 ft 401 kts 277°
2026-04-21 15:53 47.51372 12.38265 36121 ft 402 kts 277°
2026-04-21 15:53 47.51912 12.30037 36115 ft 402 kts 277°
2026-04-21 15:54 47.52445 12.21796 36107 ft 403 kts 277°
2026-04-21 15:54 47.52973 12.13584 36101 ft 403 kts 277°
2026-04-21 15:55 47.53507 12.05299 36093 ft 404 kts 277°
2026-04-21 15:55 47.54317 11.97091 36089 ft 404 kts 283°
2026-04-21 15:56 47.55465 11.88958 36087 ft 404 kts 283°
2026-04-21 15:56 47.56612 11.80820 36084 ft 404 kts 283°
2026-04-21 15:57 47.57738 11.72709 35620 ft 404 kts 283°
2026-04-21 15:57 47.58299 11.68639 35243 ft 401 kts 283°
2026-04-21 15:57 47.58853 11.64610 34870 ft 398 kts 283°
2026-04-21 15:58 47.59402 11.60610 34494 ft 394 kts 283°
2026-04-21 15:58 47.59946 11.56651 34119 ft 390 kts 283°
2026-04-21 15:58 47.60482 11.52731 33742 ft 386 kts 283°
2026-04-21 15:58 47.61012 11.48856 33365 ft 381 kts 283°
2026-04-21 15:59 47.61533 11.45033 32995 ft 378 kts 283°
2026-04-21 15:59 47.62051 11.41228 32616 ft 374 kts 283°
2026-04-21 15:59 47.62555 11.37463 32241 ft 370 kts 282°
2026-04-21 15:59 47.63020 11.33726 31871 ft 368 kts 281°
2026-04-21 16:00 47.63461 11.30008 31491 ft 365 kts 281°
2026-04-21 16:00 47.63886 11.26369 31122 ft 361 kts 281°
2026-04-21 16:00 47.64320 11.22665 30742 ft 358 kts 281°
2026-04-21 16:00 47.64749 11.19046 30366 ft 355 kts 281°
2026-04-21 16:01 47.65179 11.15465 29991 ft 351 kts 282°
2026-04-21 16:01 47.65603 11.11960 29623 ft 348 kts 282°
2026-04-21 16:01 47.66029 11.08427 29244 ft 347 kts 282°
2026-04-21 16:01 47.66449 11.04919 28869 ft 345 kts 281°
2026-04-21 16:02 47.66864 11.01422 28493 ft 343 kts 281°
2026-04-21 16:02 47.67273 10.97943 28116 ft 341 kts 281°
2026-04-21 16:02 47.67681 10.94482 27733 ft 340 kts 281°
2026-04-21 16:02 47.68085 10.91038 27367 ft 338 kts 281°
2026-04-21 16:03 47.68491 10.87604 26991 ft 337 kts 281°
2026-04-21 16:03 47.68895 10.84174 26617 ft 336 kts 281°
2026-04-21 16:03 47.69295 10.80769 26238 ft 334 kts 281°
2026-04-21 16:03 47.69694 10.77374 25863 ft 333 kts 281°
2026-04-21 16:04 47.70090 10.73983 25486 ft 332 kts 281°
2026-04-21 16:04 47.70483 10.70607 25108 ft 332 kts 281°
2026-04-21 16:04 47.70875 10.67235 24735 ft 331 kts 281°
2026-04-21 16:04 47.71261 10.63918 24367 ft 330 kts 281°
2026-04-21 16:05 47.71654 10.60558 23988 ft 329 kts 281°
2026-04-21 16:05 47.72045 10.57201 23612 ft 329 kts 281°
2026-04-21 16:05 47.72429 10.53846 23232 ft 328 kts 280°
2026-04-21 16:05 47.72812 10.50505 22860 ft 327 kts 280°
2026-04-21 16:06 47.73190 10.47178 22473 ft 326 kts 280°
2026-04-21 16:06 47.73564 10.43855 22107 ft 325 kts 280°
2026-04-21 16:06 47.73933 10.40549 21732 ft 324 kts 280°
2026-04-21 16:06 47.74302 10.37247 21357 ft 323 kts 280°
2026-04-21 16:07 47.74549 10.33938 20978 ft 322 kts 271°
2026-04-21 16:07 47.74518 10.30617 20605 ft 321 kts 270°
2026-04-21 16:07 47.74480 10.27353 20206 ft 320 kts 270°
2026-04-21 16:07 47.74439 10.24052 19805 ft 319 kts 269°
2026-04-21 16:08 47.74356 10.17493 19003 ft 316 kts 269°
2026-04-21 16:08 47.74309 10.14231 18602 ft 315 kts 269°
2026-04-21 16:08 47.74261 10.10979 18201 ft 315 kts 269°
2026-04-21 16:09 47.74211 10.07733 17800 ft 314 kts 269°
2026-04-21 16:09 47.74160 10.04495 17399 ft 313 kts 269°
2026-04-21 16:09 47.74103 10.01271 17000 ft 312 kts 269°
2026-04-21 16:09 47.74041 9.98046 16590 ft 312 kts 269°
2026-04-21 16:10 47.73980 9.94828 16198 ft 311 kts 269°
2026-04-21 16:10 47.73926 9.91614 15797 ft 311 kts 269°
2026-04-21 16:10 47.73872 9.88402 15390 ft 311 kts 269°
2026-04-21 16:10 47.73818 9.85193 14998 ft 311 kts 269°
2026-04-21 16:11 47.73763 9.81989 14593 ft 310 kts 269°
2026-04-21 16:11 47.73706 9.78795 14192 ft 309 kts 269°
2026-04-21 16:11 47.73644 9.75604 13784 ft 306 kts 269°
2026-04-21 16:11 47.73584 9.72471 13384 ft 301 kts 269°
2026-04-21 16:12 47.73547 9.70426 13128 ft 297 kts 269°
2026-04-21 16:12 47.73473 9.66363 12603 ft 292 kts 269°
2026-04-21 16:12 47.73418 9.63361 12202 ft 289 kts 269°
2026-04-21 16:12 47.73359 9.60420 11809 ft 288 kts 269°
2026-04-21 16:13 47.73299 9.57450 11429 ft 287 kts 269°
2026-04-21 16:13 47.73240 9.54498 11111 ft 284 kts 269°
2026-04-21 16:13 47.73181 9.51578 10810 ft 281 kts 269°
2026-04-21 16:13 47.73120 9.48688 10507 ft 278 kts 269°
2026-04-21 16:14 47.73063 9.45831 10206 ft 276 kts 269°
2026-04-21 16:14 47.73007 9.43001 9910 ft 272 kts 269°
2026-04-21 16:14 47.72871 9.40216 9609 ft 270 kts 260°
2026-04-21 16:14 47.72340 9.37567 9316 ft 267 kts 246°
2026-04-21 16:15 47.71463 9.35157 9025 ft 263 kts 239°
2026-04-21 16:15 47.70546 9.32823 8732 ft 260 kts 239°
2026-04-21 16:15 47.69642 9.30506 8427 ft 258 kts 239°
2026-04-21 16:15 47.68747 9.28213 8127 ft 256 kts 239°
2026-04-21 16:16 47.67860 9.25937 7822 ft 254 kts 240°
2026-04-21 16:16 47.66980 9.23678 7524 ft 252 kts 240°
2026-04-21 16:16 47.66109 9.21442 7232 ft 250 kts 240°
2026-04-21 16:16 47.65084 9.19392 6932 ft 247 kts 219°
2026-04-21 16:17 47.63576 9.18267 6653 ft 242 kts 190°
2026-04-21 16:17 47.61925 9.18325 6364 ft 237 kts 162°
2026-04-21 16:17 47.60476 9.19362 6075 ft 234 kts 148°
2026-04-21 16:17 47.59052 9.20589 5770 ft 233 kts 148°
2026-04-21 16:18 47.57787 9.22023 5476 ft 228 kts 125°
2026-04-21 16:18 47.57219 9.24110 5254 ft 220 kts 94°
2026-04-21 16:18 47.57459 9.26270 5073 ft 211 kts 64°
2026-04-21 16:18 47.58173 9.28164 4819 ft 209 kts 59°
2026-04-21 16:19 47.58895 9.30009 4485 ft 205 kts 59°
2026-04-21 16:19 47.59604 9.31819 4204 ft 201 kts 59°
2026-04-21 16:19 47.60297 9.33595 3929 ft 197 kts 59°
2026-04-21 16:19 47.60976 9.35332 3664 ft 192 kts 59°
2026-04-21 16:20 47.61637 9.37026 3416 ft 188 kts 59°
2026-04-21 16:20 47.62272 9.38656 3160 ft 177 kts 59°
2026-04-21 16:20 47.62869 9.40187 2916 ft 166 kts 59°
2026-04-21 16:20 47.63422 9.41608 2711 ft 151 kts 59°
2026-04-21 16:21 47.63919 9.42886 2502 ft 136 kts 57°
2026-04-21 16:21 47.64379 9.44065 2319 ft 130 kts 57°
2026-04-21 16:21 47.64829 9.45222 2140 ft 128 kts 57°
2026-04-21 16:21 47.65273 9.46362 1970 ft 127 kts 57°
2026-04-21 16:22 47.65566 9.47116 1856 ft 127 kts 57°
2026-04-21 16:22 47.66010 9.48249 1681 ft 127 kts 56°
2026-04-21 16:22 47.66604 9.49776 1426 ft 128 kts 57°
2026-04-21 16:22 47.67031 9.50889 1353 ft 112 kts 60°
2026-04-21 16:23 47.67252 9.51454 1364 ft 79 kts 59°
2026-04-21 16:23 47.67440 9.51939 1361 ft 30 kts 62°
2026-04-21 16:23 47.67516 9.52134 1366 ft 18 kts 60°
2026-04-21 16:23 47.67492 9.52291 1368 ft 16 kts 123°
2026-04-21 16:24 47.67412 9.52391 1369 ft 7 kts 140°
2026-04-21 16:24 47.67373 9.52386 1368 ft 5 kts 197°
2026-04-21 16:24 47.67368 9.52384 1368 ft 0 kts 197°